Time,TemperatureF,DewpointF,PressureIn,WindDirection,WindDirectionDegrees,WindSpeedMPH,WindSpeedGustMPH,Humidity,HourlyPrecipIn,Conditions,Clouds,dailyrainin,SolarRadiationWatts/m^2,SoftwareType,DateUTC
2013-05-17 00:03:00,75.0,71.0,-100.00,SSE,152,13.0,21.0,88,0.00,,,0.23,0.000000,,2013-05-17 05:03:00,
2013-05-17 00:14:00,75.0,71.0,-100.00,SSE,152,13.0,21.0,88,0.00,,,0.23,0.000000,,2013-05-17 05:14:00,
2013-05-17 00:22:00,75.0,71.0,-100.00,SSE,152,13.0,21.0,88,0.00,,,0.23,0.000000,,2013-05-17 05:22:00,
2013-05-17 00:32:00,75.0,71.0,-100.00,SSE,152,13.0,21.0,88,0.00,,,0.23,0.000000,,2013-05-17 05:32:00,
2013-05-17 01:02:00,74.0,71.0,-100.00,SSE,167,13.0,20.0,89,0.00,,,0.23,0.000000,,2013-05-17 06:02:00,
2013-05-17 01:11:00,74.0,71.0,-100.00,SSE,167,13.0,20.0,89,0.00,,,0.23,0.000000,,2013-05-17 06:11:00,
2013-05-17 01:21:00,74.0,71.0,-100.00,SSE,167,13.0,20.0,89,0.00,,,0.23,0.000000,,2013-05-17 06:21:00,
2013-05-17 01:32:00,74.0,71.0,-100.00,SSE,167,13.0,20.0,89,0.00,,,0.23,0.000000,,2013-05-17 06:32:00,
2013-05-17 02:02:00,74.0,71.0,-100.00,South,169,14.0,21.0,90,0.00,,,0.23,0.000000,,2013-05-17 07:02:00,
2013-05-17 02:11:00,74.0,71.0,-100.00,South,169,14.0,21.0,90,0.00,,,0.23,0.000000,,2013-05-17 07:11:00,
2013-05-17 02:21:00,74.0,71.0,-100.00,South,169,14.0,21.0,90,0.00,,,0.23,0.000000,,2013-05-17 07:21:00,
2013-05-17 02:32:00,74.0,71.0,-100.00,South,169,14.0,21.0,90,0.00,,,0.23,0.000000,,2013-05-17 07:32:00,
2013-05-17 03:02:00,73.0,70.0,-100.00,South,175,12.0,20.0,91,0.00,,,0.01,0.000000,,2013-05-17 08:02:00,
2013-05-17 03:12:00,73.0,70.0,-100.00,South,175,12.0,20.0,91,0.00,,,0.01,0.000000,,2013-05-17 08:12:00,
2013-05-17 03:23:00,73.0,70.0,-100.00,South,175,12.0,20.0,91,0.00,,,0.01,0.000000,,2013-05-17 08:23:00,
2013-05-17 03:33:00,73.0,70.0,-100.00,South,175,12.0,20.0,91,0.00,,,0.01,0.000000,,2013-05-17 08:33:00,
2013-05-17 04:02:00,73.0,71.0,-100.00,South,178,10.0,20.0,92,0.00,,,0.01,0.000000,,2013-05-17 09:02:00,
2013-05-17 04:12:00,73.0,71.0,-100.00,South,178,10.0,20.0,92,0.00,,,0.01,0.000000,,2013-05-17 09:12:00,
2013-05-17 04:22:00,73.0,71.0,-100.00,South,178,10.0,20.0,92,0.00,,,0.01,0.000000,,2013-05-17 09:22:00,
2013-05-17 04:33:00,73.0,71.0,-100.00,South,178,10.0,20.0,92,0.00,,,0.01,0.000000,,2013-05-17 09:33:00,
2013-05-17 05:03:00,73.0,71.0,-100.00,South,175,10.0,17.0,92,0.00,,,0.00,0.000000,,2013-05-17 10:03:00,
2013-05-17 05:12:00,73.0,71.0,-100.00,South,175,10.0,17.0,92,0.00,,,0.00,0.000000,,2013-05-17 10:12:00,
2013-05-17 05:23:00,73.0,71.0,-100.00,South,175,10.0,17.0,92,0.00,,,0.00,0.000000,,2013-05-17 10:23:00,
2013-05-17 05:33:00,73.0,71.0,-100.00,South,175,10.0,17.0,92,0.00,,,0.00,0.000000,,2013-05-17 10:33:00,
2013-05-17 06:02:00,72.0,69.0,-100.00,South,176,9.0,16.0,90,0.00,,,0.00,0.000000,,2013-05-17 11:02:00,
2013-05-17 06:12:00,72.0,69.0,-100.00,South,176,9.0,16.0,90,0.00,,,0.00,0.000000,,2013-05-17 11:12:00,
2013-05-17 06:23:00,72.0,69.0,-100.00,South,176,9.0,16.0,90,0.00,,,0.00,0.000000,,2013-05-17 11:23:00,
2013-05-17 06:34:00,72.0,69.0,-100.00,South,176,9.0,16.0,90,0.00,,,0.00,0.000000,,2013-05-17 11:34:00,
2013-05-17 07:03:00,72.0,70.0,-100.00,South,171,10.0,16.0,92,0.00,,,0.00,0.000000,,2013-05-17 12:03:00,
2013-05-17 07:12:00,72.0,70.0,-100.00,South,171,10.0,16.0,92,0.00,,,0.00,0.000000,,2013-05-17 12:12:00,
2013-05-17 07:23:00,72.0,70.0,-100.00,South,171,10.0,16.0,92,0.00,,,0.00,0.000000,,2013-05-17 12:23:00,
2013-05-17 07:32:00,72.0,70.0,-100.00,South,171,10.0,16.0,92,0.00,,,0.00,0.000000,,2013-05-17 12:32:00,
2013-05-17 08:03:00,72.0,69.0,-100.00,South,174,9.0,16.0,90,0.00,,,0.00,23.000000,,2013-05-17 13:03:00,
2013-05-17 08:12:00,72.0,69.0,-100.00,South,174,9.0,16.0,90,0.00,,,0.00,23.000000,,2013-05-17 13:12:00,
2013-05-17 08:23:00,72.0,69.0,-100.00,South,174,9.0,16.0,90,0.00,,,0.00,23.000000,,2013-05-17 13:23:00,
2013-05-17 08:33:00,72.0,69.0,-100.00,South,174,9.0,16.0,90,0.00,,,0.00,23.000000,,2013-05-17 13:33:00,
2013-05-17 09:02:00,74.0,68.0,-100.00,South,171,12.0,23.0,82,0.00,,,0.00,174.000000,,2013-05-17 14:02:00,
2013-05-17 09:13:00,74.0,68.0,-100.00,South,171,12.0,23.0,82,0.00,,,0.00,174.000000,,2013-05-17 14:13:00,
2013-05-17 09:22:00,74.0,68.0,-100.00,South,171,12.0,23.0,82,0.00,,,0.00,174.000000,,2013-05-17 14:22:00,
2013-05-17 09:34:00,74.0,68.0,-100.00,South,171,12.0,23.0,82,0.00,,,0.00,174.000000,,2013-05-17 14:34:00,
2013-05-17 09:35:00,77.0,69.0,-100.00,SSE,167,10.0,17.0,76,0.00,,,0.00,294.000000,,2013-05-17 14:35:00,
2013-05-17 10:03:00,77.0,69.0,-100.00,SSE,167,10.0,17.0,76,0.00,,,0.00,294.000000,,2013-05-17 15:03:00,
2013-05-17 10:14:00,77.0,69.0,-100.00,SSE,167,10.0,17.0,76,0.00,,,0.00,294.000000,,2013-05-17 15:14:00,
2013-05-17 10:25:00,77.0,69.0,-100.00,SSE,167,10.0,17.0,76,0.00,,,0.00,294.000000,,2013-05-17 15:25:00,
2013-05-17 10:35:00,79.0,69.0,-100.00,SSE,161,10.0,16.0,71,0.00,,,0.00,523.000000,,2013-05-17 15:35:00,
2013-05-17 11:07:00,79.0,69.0,-100.00,SSE,161,10.0,16.0,71,0.00,,,0.00,523.000000,,2013-05-17 16:07:00,
2013-05-17 11:13:00,79.0,69.0,-100.00,SSE,161,10.0,16.0,71,0.00,,,0.00,523.000000,,2013-05-17 16:13:00,
2013-05-17 11:26:00,79.0,69.0,-100.00,SSE,161,10.0,16.0,71,0.00,,,0.00,523.000000,,2013-05-17 16:26:00,
2013-05-17 11:35:00,81.0,-99.9,-100.00,SSE,148,10.0,17.0,67,0.00,,,0.00,736.000000,,2013-05-17 16:35:00,
2013-05-17 12:08:00,81.0,69.0,-100.00,SSE,148,10.0,17.0,67,0.00,,,0.00,736.000000,,2013-05-17 17:08:00,
2013-05-17 12:19:00,81.0,69.0,-100.00,SSE,148,10.0,17.0,67,0.00,,,0.00,736.000000,,2013-05-17 17:19:00,
2013-05-17 12:30:00,81.0,69.0,-100.00,SSE,148,10.0,17.0,67,0.00,,,0.00,736.000000,,2013-05-17 17:30:00,
2013-05-17 12:35:00,84.0,-99.9,-100.00,SSE,156,10.0,17.0,63,0.00,,,0.00,835.000000,,2013-05-17 17:35:00,
2013-05-17 13:09:00,84.0,70.0,-100.00,SSE,156,10.0,17.0,63,0.00,,,0.00,835.000000,,2013-05-17 18:09:00,
2013-05-17 13:20:00,84.0,70.0,-100.00,SSE,156,10.0,17.0,63,0.00,,,0.00,835.000000,,2013-05-17 18:20:00,
2013-05-17 13:30:00,84.0,70.0,-100.00,SSE,156,10.0,17.0,63,0.00,,,0.00,835.000000,,2013-05-17 18:30:00,
2013-05-17 13:35:00,86.0,70.0,-100.00,SSE,148,10.0,18.0,59,0.00,,,0.00,892.000000,,2013-05-17 18:35:00,
2013-05-17 14:10:00,86.0,70.0,-100.00,SSE,148,10.0,18.0,59,0.00,,,0.00,892.000000,,2013-05-17 19:10:00,
2013-05-17 14:20:00,86.0,70.0,-100.00,SSE,148,10.0,18.0,59,0.00,,,0.00,892.000000,,2013-05-17 19:20:00,
2013-05-17 14:30:00,86.0,70.0,-100.00,SSE,148,10.0,18.0,59,0.00,,,0.00,892.000000,,2013-05-17 19:30:00,
2013-05-17 14:35:00,87.0,70.0,-100.00,SSE,162,12.0,22.0,58,0.00,,,0.00,884.000000,,2013-05-17 19:35:00,
2013-05-17 15:09:00,87.0,70.0,-100.00,SSE,162,12.0,22.0,58,0.00,,,0.00,884.000000,,2013-05-17 20:09:00,
2013-05-17 15:20:00,87.0,70.0,-100.00,SSE,162,12.0,22.0,58,0.00,,,0.00,884.000000,,2013-05-17 20:20:00,
2013-05-17 15:30:00,87.0,70.0,-100.00,SSE,162,12.0,22.0,58,0.00,,,0.00,884.000000,,2013-05-17 20:30:00,
2013-05-17 15:35:00,88.0,71.0,-100.00,SSE,159,13.0,21.0,57,0.00,,,0.00,782.000000,,2013-05-17 20:35:00,
2013-05-17 16:07:00,88.0,71.0,-100.00,SSE,159,13.0,21.0,57,0.00,,,0.00,782.000000,,2013-05-17 21:07:00,
2013-05-17 16:17:00,88.0,71.0,-100.00,SSE,159,13.0,21.0,57,0.00,,,0.00,782.000000,,2013-05-17 21:17:00,
2013-05-17 16:26:00,88.0,71.0,-100.00,SSE,159,13.0,21.0,57,0.00,,,0.00,782.000000,,2013-05-17 21:26:00,
2013-05-17 16:35:00,90.0,70.0,-100.00,South,174,14.0,23.0,52,0.00,,,0.00,667.000000,,2013-05-17 21:35:00,
2013-05-17 17:07:00,90.0,70.0,-100.00,South,174,14.0,23.0,52,0.00,,,0.00,667.000000,,2013-05-17 22:07:00,
2013-05-17 17:17:00,90.0,70.0,-100.00,South,174,14.0,23.0,52,0.00,,,0.00,667.000000,,2013-05-17 22:17:00,
2013-05-17 17:28:00,90.0,70.0,-100.00,South,174,14.0,23.0,52,0.00,,,0.00,667.000000,,2013-05-17 22:28:00,
2013-05-17 17:35:00,90.0,69.0,-100.00,SSE,156,13.0,23.0,50,0.00,,,0.00,540.000000,,2013-05-17 22:35:00,
2013-05-17 18:04:00,90.0,69.0,-100.00,SSE,156,13.0,23.0,50,0.00,,,0.00,540.000000,,2013-05-17 23:04:00,
2013-05-17 18:13:00,90.0,69.0,-100.00,SSE,156,13.0,23.0,50,0.00,,,0.00,540.000000,,2013-05-17 23:13:00,
2013-05-17 18:23:00,90.0,69.0,-100.00,SSE,156,13.0,23.0,50,0.00,,,0.00,540.000000,,2013-05-17 23:23:00,
2013-05-17 19:02:00,90.0,68.0,-100.00,SSE,159,12.0,23.0,48,0.00,,,0.00,361.000000,,2013-05-18 00:02:00,
2013-05-17 19:14:00,90.0,68.0,-100.00,SSE,159,12.0,23.0,48,0.00,,,0.00,361.000000,,2013-05-18 00:14:00,
2013-05-17 19:22:00,90.0,68.0,-100.00,SSE,159,12.0,23.0,48,0.00,,,0.00,361.000000,,2013-05-18 00:22:00,
2013-05-17 19:33:00,90.0,68.0,-100.00,SSE,159,12.0,23.0,48,0.00,,,0.00,361.000000,,2013-05-18 00:33:00,
2013-05-17 20:03:00,87.0,68.0,-100.00,SSE,162,11.0,20.0,54,0.00,,,0.00,95.000000,,2013-05-18 01:03:00,
2013-05-17 20:13:00,87.0,68.0,-100.00,SSE,162,11.0,20.0,54,0.00,,,0.00,95.000000,,2013-05-18 01:13:00,
2013-05-17 20:24:00,87.0,68.0,-100.00,SSE,162,11.0,20.0,54,0.00,,,0.00,95.000000,,2013-05-18 01:24:00,
2013-05-17 20:32:00,87.0,68.0,-100.00,SSE,162,11.0,20.0,54,0.00,,,0.00,95.000000,,2013-05-18 01:32:00,
2013-05-17 21:02:00,84.0,69.0,-100.00,SSE,150,12.0,18.0,60,0.00,,,0.00,18.000000,,2013-05-18 02:02:00,
2013-05-17 21:12:00,84.0,69.0,-100.00,SSE,150,12.0,18.0,60,0.00,,,0.00,18.000000,,2013-05-18 02:12:00,
2013-05-17 21:22:00,84.0,69.0,-100.00,SSE,150,12.0,18.0,60,0.00,,,0.00,18.000000,,2013-05-18 02:22:00,
2013-05-17 21:31:00,84.0,69.0,-100.00,SSE,150,12.0,18.0,60,0.00,,,0.00,18.000000,,2013-05-18 02:31:00,
2013-05-17 22:03:00,80.0,70.0,-100.00,SSE,155,10.0,22.0,72,0.00,,,0.00,0.000000,,2013-05-18 03:03:00,
2013-05-17 22:12:00,80.0,70.0,-100.00,SSE,155,10.0,22.0,72,0.00,,,0.00,0.000000,,2013-05-18 03:12:00,
2013-05-17 22:22:00,80.0,70.0,-100.00,SSE,155,10.0,22.0,72,0.00,,,0.00,0.000000,,2013-05-18 03:22:00,
2013-05-17 22:32:00,80.0,70.0,-100.00,SSE,155,10.0,22.0,72,0.00,,,0.00,0.000000,,2013-05-18 03:32:00,
2013-05-17 23:03:00,78.0,70.0,-100.00,SSE,156,13.0,20.0,77,0.00,,,0.00,0.000000,,2013-05-18 04:03:00,
2013-05-17 23:12:00,78.0,70.0,-100.00,SSE,156,13.0,20.0,77,0.00,,,0.00,0.000000,,2013-05-18 04:12:00,
2013-05-17 23:23:00,78.0,70.0,-100.00,SSE,156,13.0,20.0,77,0.00,,,0.00,0.000000,,2013-05-18 04:23:00,
2013-05-17 23:33:00,78.0,70.0,-100.00,SSE,156,13.0,20.0,77,0.00,,,0.00,0.000000,,2013-05-18 04:33:00,